Weather Roundup
Issued by NWS Chicago, IL

Home | Current Version | Previous Version | Graphics & Text | Print | Product List | Glossary On
Versions: 1 2 3 4 5 6 7 8 9 10 11 12 13 14 15 16 17 18 19 20 21 22 23 24 25 26 27 28 29 30 31 32 33 34 35 36 37 38 39 40 41 42 43 44 45 46 47 48 49 50
000
NZUS59 KLOT 051312
HRRLOT

CHICAGO AREA WEATHER ROUNDUP
NATIONAL WEATHER SERVICE CHICAGO/ROMEOVILLE IL
700 AM CST MON DEC 05 2016

NOTE: "FAIR" INDICATES FEW OR NO CLOUDS BELOW 12,000 FEET WITH NO
SIGNIFICANT WEATHER AND/OR OBSTRUCTIONS TO VISIBILITY.

* THESE STATIONS ARE NOT UNDER NWS QUALITY CONTROL. THEY ALSO MAY NOT
  REPORT WEATHER SUCH AS PRECIPITATION OR FOG.

ILZ005-006-012>014-019>023-051400-
NORTHEAST ILLINOIS

CITY           SKY/WX    TMP DP  RH WIND       PRES   REMARKS
OHARE          CLOUDY    33  31  92 W5        30.00R WCI  29
MIDWAY         CLOUDY    34  30  85 SW8       30.02R FOG     WCI  27
AURORA         CLOUDY    33  30  88 SW8       30.01R FOG     WCI  26
LANSING*       CLOUDY    32  32  99 CALM      30.03R
JOLIET*        CLOUDY    33  32  94 W3        30.03S
WAUKEGAN       CLOUDY    32  31  96 VRB5      29.98S FOG     WCI  27
DUPAGE AIRPORT CLOUDY    32  29  88 SW8       30.00R WCI  25
WHEELING       CLOUDY    32  30  92 SW7       30.01S WCI  26
KANKAKEE*      CLOUDY    32  31  96 CALM      30.05R
MORRIS*        CLOUDY    32  31  95 SW3       30.02S
LEWIS AIRPORT* CLOUDY    32  32 100 CALM      30.02S
NORTHERLY ISL    N/A     34  30  86 S7          N/A  WCI  28
$$

WIZ051-052-058>065-066-070>072-051400-
SOUTHEAST WISCONSIN

CITY           SKY/WX    TMP DP  RH WIND       PRES   REMARKS
MILWAUKEE      CLOUDY    34  30  85 SW8       29.97R WCI  27
KENOSHA*       CLOUDY    33  30  88 W9        29.98R WCI  25
RACINE*        CLOUDY    33  30  88 W5        29.99R WCI  29
BURLINGTON     CLOUDY    32  31  98 CALM      29.96F FOG
WAUKESHA       CLOUDY    30  30 100 SW7       29.96S FOG     WCI  23
WEST BEND      CLOUDY    32  32 100 W5G16     29.93S WCI  27
$$

INZ001>003-010>013-019-020-051400-
NORTHWEST INDIANA

CITY           SKY/WX    TMP DP  RH WIND       PRES   REMARKS
GARY*          CLOUDY    34  32  93 SW6       30.04R WCI  29
MICHIGAN CITY* NOT AVBL
RENSSELAER*    NOT AVBL
VALPARAISO     CLOUDY    33  30  88 MISG      30.03S
$$

LMZ740>746-051400-
SOUTHERN LAKE MICHIGAN

STATION/POSITION TIME  SKY/WX   TEMP WIND        PRES    VSBY
                                AIR  DIR/SP/G
                 (UTC)          (F)  (DEG/KT/KT) (MB)    (MI)
HARRISON CRIB    1240            35  270/  7/  8   N/A
BURNHAM HARBOR   1300            34  250/  6/ 11   N/A
CALUMET HARBOR   1248            33  210/  5/  8 1016.2R
BURNS HARBOR     1240            34  200/  5/ 10 1017.3R
MICHIGAN CITY    NOT AVBL
$$

ABBREVIATIONS USED IN REMARKS
   TC - TEMPERATURE IN CELSIUS
  WCI - WIND CHILL INDEX
   HX - HEAT INDEX
  VSB - VISIBILITY
$$



USA.gov is the U.S. government's official web portal to all federal, state and local government web resources and services.